• In Uzbekistan
  • List of Countries
  • For 7 days
  • Water Temperature
  • Weather Map
  • Weather Widgets
  • user-avatar
    Login

    Hourly Weather Mérida

    Today, 19 September, Thursday

    Time Temperature Precipitation Wind Pressure Humidity
    00:00 +14°C° 0.1 mm 0 mps 591 mmHg 94%
    01:00 +14°C° 0 mm 0 mps 591 mmHg 93%
    02:00 +14°C° 0.1 mm 0 mps 591 mmHg 93%
    03:00 +14°C° 0.1 mm 0 mps 590 mmHg 94%
    04:00 +13°C° 0.1 mm 0 mps 590 mmHg 94%
    05:00 +14°C° 0 mm 0 mps 591 mmHg 92%
    06:00 +15°C° 0 mm 0 mps 592 mmHg 89%
    07:00 +16°C° 0 mm 0 mps 593 mmHg 86%
    08:00 +19°C° 0.5 mm 1 mps 593 mmHg 85%
    09:00 +21°C° 0.5 mm 1 mps 594 mmHg 83%
    10:00 +21°C° 0.5 mm 2 mps 594 mmHg 82%
    11:00 +20°C° 1.5 mm 2 mps 594 mmHg 84%
    12:00 +20°C° 1.5 mm 2 mps 593 mmHg 87%
    13:00 +20°C° 1.5 mm 2 mps 592 mmHg 89%
    14:00 +21°C° 1.3 mm 1 mps 592 mmHg 90%
    15:00 +20°C° 1.3 mm 1 mps 591 mmHg 91%
    16:00 +20°C° 1.3 mm 1 mps 591 mmHg 92%
    17:00 +19°C° 1.1 mm 1 mps 591 mmHg 93%
    18:00 +19°C° 1.1 mm 1 mps 591 mmHg 94%
    19:00 +16°C° 1.1 mm 0 mps 591 mmHg 95%
    20:00 +16°C° 1 mm 0 mps 592 mmHg 95%
    21:00 +16°C° 1 mm 0 mps 592 mmHg 94%
    22:00 +16°C° 1 mm 0 mps 592 mmHg 93%
    23:00 +15°C° 0.8 mm 0 mps 592 mmHg 93%

    Tomorrow, 20 September, Friday

    Time Temperature Precipitation Wind Pressure Humidity
    00:00 +15°C° 0.8 mm 0 mps 592 mmHg 93%
    01:00 +15°C° 0.8 mm 0 mps 592 mmHg 94%
    02:00 +15°C° 0.1 mm 0 mps 592 mmHg 94%
    03:00 +15°C° 0.1 mm 0 mps 591 mmHg 94%
    04:00 +14°C° 0.1 mm 0 mps 591 mmHg 93%
    05:00 +15°C° 0.2 mm 0 mps 592 mmHg 93%
    06:00 +15°C° 0.2 mm 0 mps 593 mmHg 92%
    07:00 +16°C° 0.2 mm 0 mps 594 mmHg 91%
    08:00 +19°C° 0.8 mm 1 mps 594 mmHg 90%
    09:00 +20°C° 0.8 mm 1 mps 595 mmHg 88%
    10:00 +21°C° 0.8 mm 1 mps 596 mmHg 87%
    11:00 +21°C° 1.5 mm 1 mps 595 mmHg 88%
    12:00 +21°C° 1.5 mm 1 mps 594 mmHg 88%
    13:00 +21°C° 1.5 mm 1 mps 594 mmHg 89%
    14:00 +21°C° 1 mm 1 mps 593 mmHg 90%
    15:00 +20°C° 1 mm 1 mps 593 mmHg 91%
    16:00 +20°C° 1 mm 1 mps 593 mmHg 92%
    17:00 +19°C° 0.7 mm 1 mps 593 mmHg 93%
    18:00 +18°C° 0.7 mm 1 mps 592 mmHg 93%
    19:00 +16°C° 0.7 mm 1 mps 592 mmHg 94%
    20:00 +16°C° 0.6 mm 1 mps 592 mmHg 93%
    21:00 +15°C° 0.6 mm 1 mps 593 mmHg 93%
    22:00 +15°C° 0.6 mm 1 mps 593 mmHg 92%
    23:00 +15°C° 0.1 mm 1 mps 592 mmHg 91%

    Day after tomorrow, 21 September, Saturday

    Time Temperature Precipitation Wind Pressure Humidity
    00:00 +15°C° 0.1 mm 1 mps 592 mmHg 91%
    01:00 +15°C° 0.1 mm 1 mps 592 mmHg 90%
    02:00 +15°C° 0 mm 1 mps 592 mmHg 90%
    03:00 +15°C° 0 mm 1 mps 592 mmHg 90%
    04:00 +15°C° 0 mm 1 mps 592 mmHg 90%
    05:00 +16°C° 0 mm 1 mps 593 mmHg 88%
    06:00 +18°C° 0 mm 1 mps 594 mmHg 86%
    07:00 +18°C° 0 mm 1 mps 594 mmHg 85%
    08:00 +19°C° 0.4 mm 1 mps 595 mmHg 84%
    09:00 +20°C° 0.4 mm 1 mps 595 mmHg 84%
    10:00 +21°C° 0.4 mm 1 mps 596 mmHg 84%
    11:00 +21°C° 1.6 mm 1 mps 595 mmHg 85%
    12:00 +21°C° 1.6 mm 1 mps 594 mmHg 87%
    13:00 +21°C° 1.6 mm 1 mps 594 mmHg 89%
    14:00 +21°C° 1.6 mm 1 mps 593 mmHg 90%
    15:00 +20°C° 1.6 mm 1 mps 593 mmHg 91%
    16:00 +19°C° 1.6 mm 1 mps 592 mmHg 92%
    17:00 +19°C° 1 mm 1 mps 592 mmHg 92%
    18:00 +18°C° 1 mm 1 mps 592 mmHg 93%
    19:00 +16°C° 1 mm 1 mps 592 mmHg 93%
    20:00 +16°C° 0.4 mm 1 mps 592 mmHg 92%
    21:00 +15°C° 0.4 mm 1 mps 592 mmHg 92%
    22:00 +15°C° 0.4 mm 1 mps 592 mmHg 91%
    23:00 +15°C° 0.2 mm 1 mps 592 mmHg 92%

    22 September, Sunday

    Time Temperature Precipitation Wind Pressure Humidity
    00:00 +15°C° 0.2 mm 1 mps 592 mmHg 92%
    01:00 +15°C° 0.2 mm 1 mps 592 mmHg 92%
    02:00 +14°C° 0 mm 1 mps 591 mmHg 91%
    03:00 +14°C° 0 mm 2 mps 591 mmHg 91%
    04:00 +14°C° 0 mm 2 mps 591 mmHg 90%
    05:00 +15°C° 0 mm 1 mps 592 mmHg 88%
    06:00 +16°C° 0 mm 1 mps 593 mmHg 86%
    07:00 +18°C° 0 mm 1 mps 594 mmHg 84%
    08:00 +19°C° 0.2 mm 1 mps 594 mmHg 80%
    09:00 +20°C° 0.2 mm 2 mps 595 mmHg 76%
    10:00 +21°C° 0.2 mm 2 mps 595 mmHg 71%
    11:00 +21°C° 1.1 mm 2 mps 595 mmHg 76%
    12:00 +20°C° 1.1 mm 2 mps 594 mmHg 80%
    13:00 +20°C° 1.1 mm 2 mps 594 mmHg 85%
    14:00 +21°C° 1.3 mm 1 mps 593 mmHg 86%
    15:00 +20°C° 1.3 mm 1 mps 593 mmHg 87%
    16:00 +20°C° 1.3 mm 1 mps 592 mmHg 88%
    17:00 +19°C° 0.7 mm 1 mps 592 mmHg 90%
    18:00 +18°C° 0.7 mm 1 mps 592 mmHg 93%
    19:00 +16°C° 0.7 mm 1 mps 592 mmHg 95%
    20:00 +16°C° 0.2 mm 1 mps 592 mmHg 93%
    21:00 +15°C° 0.2 mm 1 mps 592 mmHg 92%
    22:00 +15°C° 0.2 mm 1 mps 592 mmHg 90%
    23:00 +15°C° 0 mm 1 mps 592 mmHg 89%

    23 September, Monday

    Time Temperature Precipitation Wind Pressure Humidity
    00:00 +15°C° 0 mm 1 mps 591 mmHg 89%
    01:00 +15°C° 0 mm 1 mps 591 mmHg 88%
    02:00 +15°C° 0 mm 1 mps 591 mmHg 88%
    03:00 +14°C° 0 mm 1 mps 591 mmHg 88%
    04:00 +14°C° 0 mm 1 mps 591 mmHg 88%
    05:00 +15°C° 0 mm 1 mps 592 mmHg 86%
    06:00 +16°C° 0 mm 1 mps 593 mmHg 84%
    07:00 +18°C° 0 mm 1 mps 594 mmHg 82%
    08:00 +19°C° 0.6 mm 1 mps 595 mmHg 82%
    09:00 +20°C° 0.6 mm 1 mps 595 mmHg 81%
    10:00 +20°C° 0.6 mm 2 mps 596 mmHg 81%
    11:00 +20°C° 1.5 mm 2 mps 595 mmHg 84%
    12:00 +20°C° 1.5 mm 2 mps 594 mmHg 88%
    13:00 +19°C° 1.5 mm 2 mps 594 mmHg 91%
    14:00 +20°C° 2.2 mm 1 mps 593 mmHg 92%
    15:00 +19°C° 2.2 mm 1 mps 593 mmHg 93%
    16:00 +19°C° 2.2 mm 1 mps 592 mmHg 94%
    17:00 +16°C° 1.4 mm 0 mps 592 mmHg 94%
    18:00 +16°C° 1.4 mm 0 mps 592 mmHg 93%
    19:00 +15°C° 1.4 mm 0 mps 592 mmHg 93%
    20:00 +15°C° 0.3 mm 0 mps 593 mmHg 93%
    21:00 +15°C° 0.3 mm 0 mps 593 mmHg 92%
    22:00 +14°C° 0.3 mm 0 mps 593 mmHg 92%
    23:00 +14°C° 0.2 mm 0 mps 593 mmHg 92%

    24 September, Tuesday

    Time Temperature Precipitation Wind Pressure Humidity
    00:00 +14°C° 0.2 mm 0 mps 592 mmHg 92%
    01:00 +14°C° 0.2 mm 0 mps 592 mmHg 93%
    02:00 +14°C° 0.2 mm 0 mps 592 mmHg 93%
    03:00 +14°C° 0.2 mm 0 mps 592 mmHg 93%
    04:00 +14°C° 0.2 mm 0 mps 592 mmHg 93%
    05:00 +14°C° 0.3 mm 0 mps 593 mmHg 92%
    06:00 +15°C° 0.3 mm 0 mps 593 mmHg 90%
    07:00 +15°C° 0.3 mm 0 mps 594 mmHg 88%
    08:00 +18°C° 0.3 mm 1 mps 595 mmHg 86%
    09:00 +19°C° 0.3 mm 1 mps 595 mmHg 84%
    10:00 +20°C° 0.3 mm 1 mps 595 mmHg 81%
    11:00 +19°C° 0.9 mm 2 mps 595 mmHg 84%
    12:00 +19°C° 0.9 mm 2 mps 594 mmHg 87%
    13:00 +19°C° 0.9 mm 2 mps 594 mmHg 91%
    14:00 +20°C° 1.4 mm 1 mps 593 mmHg 91%
    15:00 +20°C° 1.4 mm 1 mps 593 mmHg 92%
    16:00 +19°C° 1.4 mm 1 mps 592 mmHg 93%
    17:00 +19°C° 1 mm 1 mps 593 mmHg 94%
    18:00 +18°C° 1 mm 1 mps 593 mmHg 95%
    19:00 +16°C° 1 mm 1 mps 593 mmHg 96%
    20:00 +16°C° 0.5 mm 1 mps 593 mmHg 96%
    21:00 +16°C° 0.5 mm 1 mps 594 mmHg 95%
    22:00 +15°C° 0.5 mm 0 mps 594 mmHg 95%
    23:00 +15°C° 0.5 mm 0 mps 594 mmHg 95%
    Show more